Location: Bush Observatory
(40.2653°N, 94.3194°W)
Time: 07:09:01
(UTC-05:00)

Daily predictions for brighter satellites

Satellite Brightness Start Highest point End
(mag) Time Altitude Azimuth Time Altitude Azimuth Time Altitude Azimuth
Cosmos 1553 Rocket 4.3 21:12:54 10° N 21:19:17 76° W 21:25:33 10° S
NOSS 3-1 (A) 4.0 21:14:40 10° S 21:19:51 34° ESE 21:25:28 10° NE
SL-16 R/B 3.5 21:15:34 10° NW 21:20:49 39° WSW 21:26:01 10° S
Meteor 2-20 4.5 21:15:14 10° S 21:21:21 78° E 21:27:29 10° N
Cosmos 1328 Rocket 4.4 21:19:52 10° NNW 21:24:13 53° W 21:28:30 10° S
H-2A R/B 2.4 21:20:43 10° SSE 21:25:08 55° ENE 21:29:34 10° N
Cosmos 1437 3.0 21:23:26 10° S 21:26:37 51° E 21:29:49 10° NNE
Cosmos 2315 Rocket 4.4 21:20:50 10° N 21:26:45 44° ENE 21:32:38 10° SSE
OTV 4 2.1 21:25:13 10° SSW 21:27:12 17° SSE 21:29:12 10° ESE
YAOGAN 6 4.3 21:28:01 10° ESE 21:30:35 18° ENE 21:33:08 10° NNE
Cosmos 1674 2.7 21:26:45 10° S 21:30:35 88° E 21:34:28 10° N
Cosmos 1908 3.3 21:27:25 10° N 21:31:21 87° W 21:35:17 10° S
ATLAS 2AS CENTAUR R/B 4.0 21:36:45 10° SSE 21:42:19 23° ESE 21:48:11 10° ENE
Cosmos 2227 Rocket 3.5 21:40:02 10° SE 21:44:02 20° E 21:48:02 10° NE
ALOS 4.2 21:41:12 10° SSW 21:45:13 28° W 21:49:15 10° NW
ERBS 3.5 21:43:09 10° S 21:45:58 23° SE 21:48:48 10° ENE
ERS-1 Rocket 3.4 21:41:35 10° S 21:46:34 65° WSW 21:51:35 10° NNW
Cosmos 1300 3.3 21:43:01 10° N 21:46:39 39° ENE 21:49:47 13° SE
Tiangong 1 0.9 21:44:30 10° WSW 21:47:36 81° SSE 21:50:42 10° ENE
CZ-4 SHROUD 3.8 21:45:24 13° SE 21:47:59 42° ENE 21:50:59 10° N
OAO 2 Rocket 4.0 21:43:17 10° SW 21:48:12 39° SSE 21:53:08 10° E
Envisat 3.0 21:46:07 10° SSE 21:51:12 84° ENE 21:56:18 10° NNW
ATLAS 3B R/B 4.4 21:47:05 10° NNW 21:52:30 23° NE 21:57:40 10° E
MetOp-A 4.3 21:51:21 11° SSE 21:56:21 59° ENE 22:01:37 10° N
Meteor 1-11 4.3 21:52:14 10° S 21:57:52 60° E 22:03:29 10° NNE
Cosmos 2151 3.4 21:54:55 10° SSW 21:59:05 63° W 22:03:15 10° N
SL-16 R/B 4.3 21:56:58 10° NNE 21:59:51 14° NE 22:02:42 10° ENE
Nadezhda 2 Rocket 4.5 21:56:18 10° S 22:02:27 90° ENE 22:08:35 10° N
Cosmos 2058 2.8 21:59:11 10° S 22:03:16 85° E 22:07:24 10° N
Cosmos 2333 Rocket 3.2 21:58:11 10° N 22:03:24 34° ENE 22:07:32 15° ESE
Delta 2 Rocket 3.6 22:00:04 10° WSW 22:03:31 36° S 22:05:23 20° SE
Hubble Space Telescope 2.8 22:02:28 10° S 22:03:43 12° S 22:03:43 12° S
NOSS 3-1 (C) 3.5 21:59:15 10° SW 22:05:05 85° NW 22:11:36 10° NNE
ARGOS 3.7 22:03:30 16° SE 22:07:31 44° ENE 22:12:37 10° N
Cosmos 1455 4.1 22:06:15 10° NNE 22:08:46 17° ENE 22:10:08 14° E
Cosmos 1937 Rocket 3.7 22:04:38 10° S 22:09:40 49° ESE 22:14:40 10° NNE
Cosmos 2297 Rocket 3.3 22:07:58 17° SE 22:10:37 23° E 22:14:59 10° NE
COSMOS 2455 4.5 22:08:34 10° N 22:13:14 22° NE 22:17:52 10° E
Cosmos 2219 Rocket 2.5 22:09:38 10° NNW 22:15:07 53° ENE 22:18:54 20° SE
COSMOS 2428 2.8 22:09:43 10° NNW 22:15:25 78° WSW 22:20:00 16° SSE
Cosmos 1726 2.1 22:12:35 10° N 22:16:23 73° E 22:18:49 21° SSE
Cosmos 990 Rocket 4.4 22:13:16 14° SSE 22:17:13 40° ESE 22:22:00 10° NE
PSLV R/B 3.6 22:17:20 17° S 22:19:29 56° W 22:22:29 10° NNW
Cosmos 2298 Rocket 4.2 22:16:00 10° SSW 22:21:19 79° WNW 22:26:40 10° NNE
Sich 1 3.0 22:17:18 11° S 22:21:32 80° E 22:25:56 10° N
Cosmos 1633 Rocket 3.0 22:24:02 12° S 22:28:02 89° E 22:32:26 10° N
Cosmos 2242 Rocket 3.6 22:24:47 10° N 22:29:17 73° E 22:31:58 24° SSE
Meteor 2-10 4.4 22:23:49 10° N 22:29:30 59° ENE 22:33:02 23° SSE
Meteor 1-4 Rocket 2.5 22:25:45 10° N 22:29:30 74° E 22:31:14 29° SSE
CZ-4B R/B 3.5 22:24:48 10° NNE 22:30:05 83° ESE 22:35:15 10° SSW
SPOT 5 3.7 22:30:38 12° S 22:34:42 45° W 22:39:23 10° NNW
USA 245 2.1 22:36:59 58° SSW 22:37:18 70° WSW 22:39:34 10° NNW
Cosmos 1980 3.9 22:32:14 10° NNW 22:37:49 58° ENE 22:40:54 26° SE
Cosmos 1869 4.2 22:40:08 10° N 22:43:54 35° ENE 22:44:53 30° ESE
Cosmos 292 Rocket 3.8 22:39:17 10° NNW 22:44:02 75° WSW 22:46:35 27° S
IGS 5A 4.5 22:43:40 26° ESE 22:44:57 32° ENE 22:48:42 10° N
FALCON 9 R/B 4.2 22:16:02 10° W 22:47:37 68° S 22:54:02 17° ESE
H-2A R/B 2.5 22:46:30 28° SE 22:49:06 53° ENE 22:54:24 10° N
Cosmos 2237 Rocket 2.3 22:44:09 10° NNW 22:49:50 67° ENE 22:52:39 30° SE
Cosmos 1271 Rocket 3.0 22:46:41 10° NNW 22:50:31 63° W 22:52:15 30° SSW
DELTA 2 DEB (DPAF) 4.1 22:52:03 35° SSE 22:53:53 76° ENE 22:58:23 10° N
Cosmos 2082 3.6 22:49:35 12° SSW 22:54:55 78° ESE 23:00:39 10° NNE
Cosmos 1346 2.9 22:55:02 73° SSE 22:55:16 83° ESE 22:58:19 10° N
CZ-4C R/B 2.9 22:54:41 52° SE 22:55:25 75° ENE 22:58:53 10° N
Landsat 7 3.8 22:53:36 34° SSE 22:55:38 74° ENE 23:00:24 10° N
Iridium 2 3.8 22:54:33 32° SSW 22:56:12 77° W 23:00:04 10° N
Cosmos 1626 2.1 22:56:29 48° SSE 22:57:20 68° E 23:01:05 10° NNE
Cosmos 1703 4.0 22:59:02 20° SSW 23:01:29 50° W 23:05:19 10° N
SPOT 1/Viking Rocket 4.2 22:58:30 21° SSW 23:01:45 50° W 23:06:45 10° NNW
Cosmos 1125 Rocket 3.9 23:00:29 35° SE 23:01:59 44° ESE 23:07:00 10° NNE
NOAA 11 4.5 22:59:50 25° S 23:03:01 64° W 23:08:27 10° NNW
OTV 4 2.6 23:00:19 10° WSW 23:01:15 18° WSW 23:01:15 18° WSW
Cosmos 44 Rocket 4.4 23:03:46 27° ESE 23:03:46 27° ESE 23:07:48 10° NE
YAOGAN 6 4.4 23:02:03 16° SW 23:04:00 25° W 23:07:03 10° NW
Terra 1.8 23:09:59 43° SSE 23:11:30 75° ENE 23:16:16 10° N
SL-08 RB Rocket 4.3 23:11:03 29° SSW 23:12:59 49° W 23:17:22 10° NNW
Cosmos 1470 Rocket 4.4 23:19:29 24° SW 23:21:47 46° W 23:25:58 10° N
ERBS 4.2 23:19:30 10° WSW 23:22:41 32° NW 23:25:52 10° NNE
Cosmos 1933 Rocket 4.4 23:20:22 24° SW 23:22:47 49° W 23:27:08 10° N
Spot 4 3.8 23:21:30 48° SSE 23:22:49 75° ENE 23:27:40 10° N
SAR-Lupe-2 3.4 23:23:59 84° SE 23:24:04 86° ENE 23:27:40 10° NNW
Tiangong 1 1.8 23:21:17 10° W 23:24:19 50° N 23:24:22 50° N
Cosmos 1703 Rocket 3.8 23:23:07 10° N 23:27:24 53° E 23:27:50 50° ESE
Cosmos 2227 Rocket 2.8 23:22:04 10° SW 23:27:36 55° WNW 23:33:11 10° NNE
Nadezhda 1 Rocket 4.4 23:22:51 10° NNW 23:28:50 58° W 23:32:02 28° SSW
Cosmos 1900 4.3 23:25:56 10° NNW 23:30:55 77° ENE 23:31:59 54° SE
ATLAS 2AS CENTAUR R/B 3.1 23:24:58 10° SW 23:32:27 76° NW 23:40:35 10° NNE
OAO 2 Rocket 3.6 23:27:33 10° WSW 23:32:37 48° S 23:32:37 48° S
Lacrosse 4 Rocket 1.5 23:35:08 10° NNW 23:39:35 73° ENE 23:40:03 65° ESE
ATLAS 3B R/B 2.6 23:37:14 10° NNW 23:44:15 87° NE 23:46:35 44° SE
Aureole 2 Rocket 4.2 23:41:46 10° N 23:43:52 22° NE 23:43:52 22° NE
Cosmos 1455 3.6 23:41:13 10° NNW 23:44:33 29° W 23:45:11 28° WSW
SL-16 R/B 2.1 23:39:09 10° NNW 23:44:52 84° ENE 23:46:17 53° SSE
DMSP B5D2-2 4.5 23:40:07 10° N 23:45:15 60° WNW 23:47:41 30° SW
Cosmos 2074 Rocket 4.4 23:45:00 40° ESE 23:46:19 45° E 23:52:16 10° NNE
Cosmos 2221 Rocket 3.5 23:41:51 10° N 23:46:25 83° E 23:46:49 73° SSE
BREEZE-M DEB (TANK) 3.1 23:44:14 10° NW 23:45:52 49° NW 23:45:52 49° NW
Cosmos 2333 Rocket 3.3 23:42:28 10° NW 23:47:38 35° WSW 23:49:33 28° SW
COS B Rocket 3.5 23:44:23 10° N 23:48:11 65° ENE 23:48:11 65° ENE
Cosmos 1709 Rocket 4.0 23:47:29 37° SSW 23:50:04 74° W 23:56:11 10° N
Cosmos 1933 3.4 23:47:13 10° NNW 23:51:17 71° W 23:51:19 71° W
Cosmos 2297 Rocket 3.0 23:49:41 14° SW 23:54:17 48° WNW 23:59:45 10° NNE
